• en France
  • Liste des pays
  • À 7 jours
  • Température de l'eau
  • Carte satellitaire
  • Carte météo
  • Widgets météo
  • user-avatar
    Se connecter

    Météo par heure à Villavicencio

    Ce jour, 22 Août, Mercredi

    Heure Température Précipitation Vent Pression Humidité
    00:00 +24°C° 0,4 mm 1 m/s 720 mmHg 89%
    01:00 +24°C° 0,4 mm 1 m/s 720 mmHg 88%
    02:00 +23°C° 0,3 mm 1 m/s 719 mmHg 87%
    03:00 +23°C° 0,3 mm 1 m/s 719 mmHg 87%
    04:00 +23°C° 0,3 mm 1 m/s 719 mmHg 87%
    05:00 +23°C° 0,2 mm 1 m/s 719 mmHg 85%
    06:00 +24°C° 0,2 mm 1 m/s 719 mmHg 84%
    07:00 +24°C° 0,2 mm 1 m/s 720 mmHg 83%
    08:00 +26°C° 0 mm 1 m/s 720 mmHg 76%
    09:00 +27°C° 0 mm 1 m/s 720 mmHg 70%
    10:00 +29°C° 0 mm 2 m/s 720 mmHg 63%
    11:00 +30°C° 0 mm 2 m/s 720 mmHg 60%
    12:00 +31°C° 0 mm 2 m/s 719 mmHg 56%
    13:00 +32°C° 0 mm 2 m/s 719 mmHg 53%
    14:00 +31°C° 0 mm 2 m/s 718 mmHg 56%
    15:00 +31°C° 0 mm 2 m/s 717 mmHg 58%
    16:00 +30°C° 0 mm 2 m/s 716 mmHg 61%
    17:00 +29°C° 0,3 mm 1 m/s 717 mmHg 69%
    18:00 +27°C° 0,3 mm 1 m/s 717 mmHg 77%
    19:00 +23°C° 0,3 mm 0 m/s 717 mmHg 85%
    20:00 +23°C° 0,5 mm 0 m/s 718 mmHg 85%
    21:00 +23°C° 0,5 mm 0 m/s 719 mmHg 85%
    22:00 +22°C° 0,5 mm 0 m/s 719 mmHg 85%
    23:00 +24°C° 0,3 mm 1 m/s 719 mmHg 85%

    Demain, 23 Août, Jeudi

    Heure Température Précipitation Vent Pression Humidité
    00:00 +24°C° 0,3 mm 1 m/s 719 mmHg 85%
    01:00 +24°C° 0,3 mm 1 m/s 719 mmHg 85%
    02:00 +24°C° 0,1 mm 1 m/s 718 mmHg 84%
    03:00 +23°C° 0,1 mm 1 m/s 718 mmHg 83%
    04:00 +23°C° 0,1 mm 1 m/s 718 mmHg 82%
    05:00 +24°C° 0 mm 1 m/s 718 mmHg 81%
    06:00 +24°C° 0 mm 1 m/s 719 mmHg 80%
    07:00 +25°C° 0 mm 1 m/s 719 mmHg 78%
    08:00 +26°C° 0 mm 1 m/s 719 mmHg 71%
    09:00 +28°C° 0 mm 1 m/s 720 mmHg 64%
    10:00 +30°C° 0 mm 2 m/s 720 mmHg 57%
    11:00 +31°C° 0 mm 2 m/s 719 mmHg 55%
    12:00 +32°C° 0 mm 2 m/s 718 mmHg 53%
    13:00 +32°C° 0 mm 2 m/s 718 mmHg 50%
    14:00 +32°C° 0 mm 2 m/s 717 mmHg 54%
    15:00 +31°C° 0 mm 2 m/s 716 mmHg 57%
    16:00 +31°C° 0 mm 2 m/s 716 mmHg 61%
    17:00 +29°C° 0,6 mm 1 m/s 716 mmHg 68%
    18:00 +27°C° 0,6 mm 1 m/s 716 mmHg 76%
    19:00 +23°C° 0,6 mm 0 m/s 717 mmHg 84%
    20:00 +25°C° 0,8 mm 1 m/s 717 mmHg 85%
    21:00 +24°C° 0,8 mm 1 m/s 718 mmHg 85%
    22:00 +24°C° 0,8 mm 1 m/s 719 mmHg 86%
    23:00 +24°C° 0,3 mm 1 m/s 718 mmHg 85%

    Après-demain, 24 Août, Vendredi

    Heure Température Précipitation Vent Pression Humidité
    00:00 +24°C° 0,3 mm 1 m/s 718 mmHg 84%
    01:00 +23°C° 0,3 mm 1 m/s 718 mmHg 83%
    02:00 +23°C° 0,3 mm 1 m/s 718 mmHg 83%
    03:00 +23°C° 0,3 mm 1 m/s 717 mmHg 82%
    04:00 +23°C° 0,3 mm 1 m/s 717 mmHg 81%
    05:00 +22°C° 0,2 mm 0 m/s 718 mmHg 80%
    06:00 +22°C° 0,2 mm 0 m/s 718 mmHg 79%
    07:00 +23°C° 0,2 mm 0 m/s 718 mmHg 78%
    08:00 +27°C° 0 mm 1 m/s 719 mmHg 71%
    09:00 +29°C° 0 mm 1 m/s 719 mmHg 63%
    10:00 +31°C° 0 mm 2 m/s 719 mmHg 56%
    11:00 +32°C° 0 mm 2 m/s 719 mmHg 54%
    12:00 +32°C° 0 mm 2 m/s 718 mmHg 51%
    13:00 +34°C° 0 mm 2 m/s 717 mmHg 49%
    14:00 +34°C° 0 mm 2 m/s 717 mmHg 52%
    15:00 +32°C° 0 mm 2 m/s 716 mmHg 54%
    16:00 +32°C° 0 mm 2 m/s 715 mmHg 56%
    17:00 +30°C° 0,1 mm 1 m/s 716 mmHg 64%
    18:00 +28°C° 0,1 mm 1 m/s 716 mmHg 72%
    19:00 +26°C° 0,1 mm 1 m/s 717 mmHg 79%
    20:00 +25°C° 0,1 mm 1 m/s 717 mmHg 79%
    21:00 +25°C° 0,1 mm 1 m/s 718 mmHg 78%
    22:00 +24°C° 0,1 mm 1 m/s 719 mmHg 78%
    23:00 +24°C° 0 mm 1 m/s 719 mmHg 76%

    25 Août, Samedi

    Heure Température Précipitation Vent Pression Humidité
    00:00 +24°C° 0 mm 1 m/s 718 mmHg 74%
    01:00 +24°C° 0 mm 1 m/s 718 mmHg 71%
    02:00 +23°C° 0,1 mm 1 m/s 718 mmHg 71%
    03:00 +23°C° 0,1 mm 1 m/s 718 mmHg 72%
    04:00 +21°C° 0,1 mm 0 m/s 718 mmHg 72%
    05:00 +22°C° 0,1 mm 0 m/s 718 mmHg 72%
    06:00 +22°C° 0,1 mm 0 m/s 719 mmHg 72%
    07:00 +23°C° 0,1 mm 0 m/s 719 mmHg 72%
    08:00 +26°C° 0,3 mm 1 m/s 720 mmHg 72%
    09:00 +27°C° 0,3 mm 1 m/s 720 mmHg 71%
    10:00 +27°C° 0,3 mm 1 m/s 720 mmHg 71%
    11:00 +28°C° 0,3 mm 1 m/s 719 mmHg 70%
    12:00 +28°C° 0,3 mm 1 m/s 719 mmHg 68%
    13:00 +29°C° 0,3 mm 1 m/s 718 mmHg 67%
    14:00 +29°C° 0,1 mm 1 m/s 718 mmHg 67%
    15:00 +29°C° 0,1 mm 2 m/s 717 mmHg 66%
    16:00 +29°C° 0,1 mm 2 m/s 717 mmHg 66%
    17:00 +28°C° 0,2 mm 1 m/s 717 mmHg 72%
    18:00 +26°C° 0,2 mm 1 m/s 718 mmHg 78%
    19:00 +23°C° 0,2 mm 0 m/s 719 mmHg 84%
    20:00 +25°C° 0,1 mm 1 m/s 719 mmHg 84%
    21:00 +24°C° 0,1 mm 1 m/s 719 mmHg 85%
    22:00 +24°C° 0,1 mm 1 m/s 720 mmHg 85%
    23:00 +23°C° 0 mm 1 m/s 720 mmHg 83%

    26 Août, Dimanche

    Heure Température Précipitation Vent Pression Humidité
    00:00 +23°C° 0 mm 1 m/s 719 mmHg 82%
    01:00 +23°C° 0 mm 1 m/s 719 mmHg 81%
    02:00 +23°C° 0 mm 1 m/s 719 mmHg 80%
    03:00 +23°C° 0 mm 1 m/s 718 mmHg 79%
    04:00 +23°C° 0 mm 1 m/s 718 mmHg 78%
    05:00 +23°C° 0 mm 1 m/s 719 mmHg 76%
    06:00 +24°C° 0 mm 1 m/s 719 mmHg 74%
    07:00 +24°C° 0 mm 1 m/s 720 mmHg 72%
    08:00 +26°C° 0 mm 1 m/s 720 mmHg 66%
    09:00 +28°C° 0 mm 2 m/s 720 mmHg 61%
    10:00 +30°C° 0 mm 2 m/s 721 mmHg 55%
    11:00 +31°C° 0 mm 2 m/s 720 mmHg 53%
    12:00 +31°C° 0 mm 2 m/s 719 mmHg 51%
    13:00 +32°C° 0 mm 2 m/s 718 mmHg 49%
    14:00 +32°C° 0 mm 2 m/s 718 mmHg 52%
    15:00 +31°C° 0 mm 2 m/s 717 mmHg 54%
    16:00 +31°C° 0 mm 2 m/s 717 mmHg 57%
    17:00 +29°C° 0,1 mm 1 m/s 717 mmHg 63%
    18:00 +27°C° 0,1 mm 1 m/s 718 mmHg 70%
    19:00 +26°C° 0,1 mm 1 m/s 718 mmHg 77%
    20:00 +25°C° 0,7 mm 1 m/s 719 mmHg 79%
    21:00 +24°C° 0,7 mm 1 m/s 719 mmHg 80%
    22:00 +24°C° 0,7 mm 1 m/s 720 mmHg 82%
    23:00 +24°C° 0,5 mm 1 m/s 719 mmHg 82%

    27 Août, Lundi

    Heure Température Précipitation Vent Pression Humidité
    00:00 +24°C° 0,5 mm 1 m/s 719 mmHg 81%
    01:00 +24°C° 0,5 mm 1 m/s 719 mmHg 81%
    02:00 +23°C° 0,3 mm 1 m/s 718 mmHg 81%
    03:00 +23°C° 0,3 mm 1 m/s 718 mmHg 81%
    04:00 +23°C° 0,3 mm 1 m/s 718 mmHg 81%
    05:00 +23°C° 0,1 mm 1 m/s 719 mmHg 79%
    06:00 +22°C° 0,1 mm 0 m/s 719 mmHg 78%
    07:00 +22°C° 0,1 mm 0 m/s 720 mmHg 77%
    08:00 +26°C° 0 mm 1 m/s 720 mmHg 73%
    09:00 +27°C° 0 mm 1 m/s 720 mmHg 69%
    10:00 +28°C° 0 mm 2 m/s 720 mmHg 65%
    11:00 +29°C° 0 mm 2 m/s 720 mmHg 62%
    12:00 +30°C° 0 mm 2 m/s 719 mmHg 59%
    13:00 +31°C° 0 mm 2 m/s 718 mmHg 56%
    14:00 +31°C° 0 mm 2 m/s 718 mmHg 57%
    15:00 +30°C° 0 mm 2 m/s 717 mmHg 59%
    16:00 +30°C° 0 mm 2 m/s 717 mmHg 60%
    17:00 +29°C° 0 mm 1 m/s 717 mmHg 66%
    18:00 +27°C° 0 mm 1 m/s 717 mmHg 72%
    19:00 +25°C° 0 mm 1 m/s 718 mmHg 78%
    20:00 +25°C° 0,1 mm 1 m/s 718 mmHg 78%
    21:00 +25°C° 0,1 mm 1 m/s 719 mmHg 77%
    22:00 +25°C° 0,1 mm 1 m/s 719 mmHg 76%
    23:00 +24°C° 0,2 mm 1 m/s 719 mmHg 77%
    Voir plus